Location: Seattle
(47.6064°N, 122.3308°W)
Time: 15:54:36
(UTC-08:00)

deb Explorer IX - All Passes

Search period start: 05 December 2020 00:00
Search period end: 15 December 2020 00:00
Orbit: 537 x 1105 km, 38.8° (Epoch: 05 December)

Date Brightness Start Highest point End Pass type
(mag) Time Alt. Az. Time Alt. Az. Time Alt. Az.
05 Dec - 12:49:28 10° S 12:53:56 18° SSE 12:58:11 10° ESE daylight
05 Dec - 14:34:05 10° SW 14:40:13 33° SSE 14:45:46 10° ESE daylight
05 Dec - 16:20:40 10° WSW 16:26:43 37° S 16:32:02 10° ESE daylight
05 Dec - 18:08:09 10° WSW 18:12:55 24° SSW 18:17:10 10° SSE visible
06 Dec - 12:25:54 10° S 12:30:29 18° SSE 12:34:53 10° ESE daylight
06 Dec - 14:10:32 10° SW 14:16:47 33° SSE 14:22:29 10° ESE daylight
06 Dec - 15:57:06 10° WSW 16:03:19 38° S 16:08:48 10° ESE daylight
06 Dec - 17:44:35 10° WSW 17:49:33 24° SSW 17:53:59 10° SSE visible
07 Dec - 12:02:20 10° S 12:07:01 18° SSE 12:11:33 10° ESE daylight
07 Dec - 13:46:59 10° SW 13:53:20 34° SSE 13:59:11 10° ESE daylight
07 Dec - 15:33:32 10° WSW 15:39:54 39° S 15:45:33 10° ESE daylight
07 Dec - 17:21:00 10° WSW 17:26:11 25° SSW 17:30:48 10° SSE visible
08 Dec - 11:38:48 10° S 11:43:32 19° SSE 11:48:11 10° ESE daylight
08 Dec - 13:23:26 10° SW 13:29:52 35° SSE 13:35:52 10° ESE daylight
08 Dec - 15:09:58 10° WSW 15:16:27 39° S 15:22:17 10° ESE daylight
08 Dec - 16:57:25 10° WSW 17:02:47 26° SSW 17:07:35 10° SSE visible
09 Dec - 11:15:16 10° S 11:20:04 19° SSE 11:24:48 10° ESE daylight
09 Dec - 12:59:53 10° SW 13:06:22 35° SSE 13:12:30 10° ESE daylight
09 Dec - 14:46:25 10° WSW 14:53:00 40° S 14:58:59 10° ESE daylight
09 Dec - 16:33:50 10° WSW 16:39:21 27° SSW 16:44:20 10° SSE daylight
10 Dec - 10:51:47 10° S 10:56:34 19° SSE 11:01:22 10° ESE daylight
10 Dec - 12:36:22 10° SW 12:42:52 35° SSE 12:49:07 10° ESE daylight
10 Dec - 14:22:51 10° WSW 14:29:32 40° S 14:35:40 10° ESE daylight
10 Dec - 16:10:15 10° WSW 16:15:55 27° SSW 16:21:05 10° SSE daylight
11 Dec - 10:28:18 10° S 10:33:05 19° SSE 10:37:54 10° ESE daylight
11 Dec - 12:12:51 10° SW 12:19:22 36° SSE 12:25:43 10° ESE daylight
11 Dec - 13:59:18 10° WSW 14:06:02 41° S 14:12:19 10° ESE daylight
11 Dec - 15:46:40 10° WSW 15:52:28 28° SSW 15:57:47 10° SSE daylight
11 Dec - 17:37:48 10° SW 17:38:10 10° SW 17:38:33 10° SW visible
12 Dec - 10:04:51 10° S 10:09:35 19° SSE 10:14:25 10° ESE daylight
12 Dec - 11:49:21 10° SW 11:55:52 36° SSE 12:02:18 10° ESE daylight
12 Dec - 13:35:46 10° WSW 13:42:32 41° S 13:48:56 10° ESE daylight
12 Dec - 15:23:05 10° WSW 15:29:01 28° SSW 15:34:28 10° SSE daylight
12 Dec - 17:13:32 10° SW 17:14:45 10° SW 17:15:56 10° SSW visible
13 Dec - 09:41:25 10° S 09:46:06 19° SSE 09:50:54 10° ESE daylight
13 Dec - 11:25:53 10° SW 11:32:20 36° SSE 11:38:50 10° ESE daylight
13 Dec - 13:12:15 10° WSW 13:19:01 41° S 13:25:32 10° ESE daylight
13 Dec - 14:59:31 10° WSW 15:05:32 29° SSW 15:11:08 10° SSE daylight
13 Dec - 16:49:39 10° SW 16:51:19 11° SW 16:52:56 10° SSW visible
14 Dec - 09:18:01 10° S 09:22:36 19° SSE 09:27:22 10° ESE daylight
14 Dec - 11:02:25 10° SW 11:08:49 36° SSE 11:15:21 10° ESE daylight
14 Dec - 12:48:44 10° WSW 12:55:30 42° S 13:02:07 10° ESE daylight
14 Dec - 14:35:58 10° WSW 14:42:02 29° SSW 14:47:46 10° SE daylight
14 Dec - 16:25:53 10° WSW 16:27:52 11° SW 16:29:47 10° SSW daylight
